Main page
METAR-TAF:

METAR-TAF

Airports :

Cascais, Portugal

Cascais Municipal Aerodrome

latitude: 38-43-32N, longitude: 009-21-19W, elevation: 99 m

Current weather observation

The report was made 1 hour and 39 minutes ago, at 21:30 UTC
Wind 18 kt from the North
Temperature 19°C
Humidity 88%
Pressure 1017 hPa
Visibility 10 km or more
Few clouds at a height of 1000 ft

METAR: LPCS 232130Z 36018KT 9999 FEW010 19/17 Q1017

Time: 00:09 (23:09 UTC)


TAF: missing

Weather observations and forecasts of more than 4000 airports (METAR and TAF reports).

The available stations are represented by yellow and red dots on the map.

Hover mouse over dot to see the name of the station.

Then click to see weather observations and forecasts.

To change the map : click on the green buttons with a black cross to zoom in, on the green button with a dash to zoom out, or on the green arrows for adjacent maps.


METAR-TAF: